User: anonymous   Login
Location: Unspecified
(0.0000°N, 0.0000°E)
Time: 18:44:26
(UTC+00:00)
Language:

SAUDISAT 4 - Orbit

View from above orbital plane
View from above orbital plane
View from above satellite
View from above satellite

Ground track
Ground track

The orbit data is extracted from the following two-line orbital elements,

1 40016U 14033G   17145.58559412 +.00000061 +00000-0 +16442-4 0  9997
2 40016 097.8655 033.7114 0048527 002.1415 357.9993 14.75111999157804
Epoch (UTC): 25 May 2017 14:03:15
Eccentricity: 0.0048527
inclination: 97.8655°
perigee height: 611 km
apogee height: 679 km
right ascension of ascending node: 33.7114°
argument of perigee: 2.1415°
revolutions per day: 14.75111999
mean anomaly at epoch: 357.9993°
orbit number at epoch: 15780

The dashed part of the orbit path shows where the satellite is in the earth's shadow,  

DLR